Flag for Japan Weather past 2 weeks in Kagoshima, Japan

Now
40 °F

Sprinkles. Overcast.


Feels Like: 34 °F
Forecast: 42 / 47 °F
Wind: 9 mph from Northwest

Location: Kagoshima

Current Time: Dec 22, 2014 at 3:53:29 AM

Latest Report: Dec 22, 2014 at 3:00 AM


Visibility: 6 mi

Pressure: 30.17 "Hg

Humidity: 88%

Dew point: 36 °F

Location of KagoshimaLocation

Historic Weather in Kagoshima — Graph

°F

Kagoshima temperature yesterday

Maximum temperature yesterday: 50 °F (at 12:00 PM)
Minimum temperature yesterday: 41 °F (at 11:00 PM)
Average temperature yesterday: 45 °F

Past Weeks' High & Low Weather Summary

 TemperatureHumidityPressure
High65 °F (Dec 10, 3:00 PM)98% (Dec 20, 7:00 AM)30.50 "Hg (Dec 20, 7:00 AM)
Low35 °F (Dec 19, 1:00 AM)31% (Dec 15, 2:00 PM)29.87 "Hg (Dec 16, 7:00 AM)
Average48 °F70%30.22 "Hg
* Reported Dec 7 2:00 AM — Dec 22 2:00 AM, Kagoshima, Weather by CustomWeather, © 2014

Note: Actual official high and low records may vary slightly from our data, if they occured in-between our weather recording intervals... More about our weather records

Advertising

Kagoshima weather history for previous 24 hours

 ConditionsComfort  
Time TempWeatherWind HumidityBarometerVisibility
2:00 AM
Dec 22
41 °FQuite cool.6 mph84%30.16 "HgN/A
1:00 AM41 °FQuite cool.5 mph89%30.16 "HgN/A
12:00 AM41 °FQuite cool.12 mph87%30.16 "HgN/A
11:00 PM
Dec 21
41 °FQuite cool.6 mph89%30.16 "HgN/A
10:00 PM42 °FQuite cool.7 mph90%30.16 "HgN/A
9:00 PM42 °FOvercast.6 mph87%30.14 "Hg9 mi
8:00 PM43 °FQuite cool.8 mph85%30.14 "HgN/A
7:00 PM45 °FQuite cool.3 mph70%30.11 "HgN/A
6:00 PM45 °FSprinkles. Overcast.6 mph66%30.11 "Hg12 mi
5:00 PM46 °FCool.6 mph62%30.11 "HgN/A
4:00 PM47 °FCool.9 mph60%30.12 "HgN/A
3:00 PM48 °FOvercast.10 mph58%30.11 "Hg19 mi
2:00 PM49 °FCool.10 mph57%30.11 "HgN/A
1:00 PM48 °FCool.9 mph57%30.13 "HgN/A
12:00 PM50 °FOvercast.12 mph53%30.13 "Hg19 mi
11:00 AM50 °FCool.8 mph56%30.15 "HgN/A
10:00 AM46 °FCool.6 mph63%30.19 "HgN/A
9:00 AM45 °FOvercast.2 mph70%30.18 "Hg19 mi
8:00 AM43 °FQuite cool.7 mph76%30.16 "HgN/A
7:00 AM44 °FQuite cool.3 mph68%30.16 "HgN/A
5:00 AM42 °FQuite cool.5 mph75%30.17 "HgN/A
4:00 AM43 °FQuite cool.5 mph71%30.17 "HgN/A
3:00 AM42 °FPassing clouds.6 mph73%30.17 "Hg12 mi
Weather by CustomWeather, © 2014

See weather overviewHow to use our weather pages